[[[{"header":{"parameterUnit":"kt","parameterCategory":2,"dx":1,"dy":1,"la1":30.253999710083008,"la2":30.299108505249023,"lo1":-89.0895004272461,"lo2":-89.04439544677734,"nx":28,"ny":28,"refTime":"2022-10-14T21:00:00:Z","depth":"0","parameterNumber":2,"parameterNumberName":"U-component_of_CURRENTS"},"data":[-0.5282,-0.5207,-0.5286,-0.5006,-0.4996,-0.4609,-0.439,-0.4001,-0.3792,-0.3201,-0.3009,-0.2916,-0.3077,-0.3327,-0.315,-0.2988,-0.3069,-0.2834,-0.3044,-0.3416,-0.3509,-0.3599,-0.3505,-0.2722,-0.2722,-0.2573,-0.2573,-0.2572,-0.55,-0.5529,-0.5647,-0.5731,-0.561,-0.5805,-0.5674,-0.5398,-0.4934,-0.4795,-0.4442,-0.4083,-0.3685,-0.3662,-0.3448,-0.3282,-0.3327,-0.324,-0.3436,-0.3417,-0.3736,-0.3613,-0.2841,-0.2841,-0.2841,-0.2841,-0.2841,-0.2841,-0.5769,-0.5873,-0.5979,-0.6152,-0.6232,-0.6165,-0.6103,-0.6073,-0.5955,-0.5629,-0.5702,-0.5206,-0.5003,-0.4498,-0.4349,-0.4087,-0.433,-0.4034,-0.4189,-0.4321,-0.411,-0.4353,-0.3852,-0.3857,-0.3861,-0.3864,-0.3867,0,-0.5892,-0.6006,-0.6201,-0.6405,-0.6505,-0.6701,-0.6805,-0.6828,-0.698,-0.6908,-0.6554,-0.6304,-0.5935,-0.5424,-0.5167,-0.4974,-0.5287,-0.5161,-0.5227,-0.4857,-0.4816,-0.4619,-0.5183,-0.4945,-0.4956,-0.4964,-0.497,-0.4975,-0.584,-0.6006,-0.6447,-0.6516,-0.67,-0.6984,-0.7053,-0.7373,-0.7365,-0.7418,-0.7285,-0.7105,-0.6745,-0.6361,-0.6114,-0.5827,-0.5923,-0.5435,-0.5475,-0.5383,-0.5394,-0.5488,-0.5397,-0.5093,-0.5078,-0.5065,-0.5055,0,-0.5773,-0.5985,-0.6349,-0.675,-0.6851,-0.7056,-0.7375,-0.7428,-0.7617,-0.7612,-0.7612,-0.7582,-0.7266,-0.7206,-0.6996,-0.6854,-0.6453,-0.6428,-0.6057,-0.5881,-0.5435,-0.5529,-0.5404,-0.5268,-0.5964,-0.5954,-0.5945,0,-0.578,-0.601,-0.6349,-0.6533,-0.6836,-0.7078,-0.7333,-0.7493,-0.7641,-0.7654,-0.7757,-0.7654,-0.7651,-0.7482,-0.7317,-0.6904,-0.7118,-0.6667,-0.6531,-0.6274,-0.6209,-0.6043,-0.6104,-0.7091,-0.7093,-0.7094,-0.7095,0,-0.5657,-0.6091,-0.6367,-0.6514,-0.6942,-0.7083,-0.7256,-0.7459,-0.7571,-0.7686,-0.768,-0.7735,-0.7605,-0.7567,-0.7226,-0.7261,-0.7077,-0.7068,-0.6604,-0.6568,-0.6147,-0.6064,-0.6198,-0.7097,-0.7097,-0.7097,-0.7098,0,-0.5703,-0.5938,-0.63,-0.6675,-0.6768,-0.6967,-0.7225,-0.7408,-0.7547,-0.7558,-0.7594,-0.748,-0.7503,-0.7356,-0.7256,-0.7249,-0.7091,-0.6978,-0.6967,-0.6447,-0.6195,-0.5784,-0.5872,-0.5849,-0.6697,-0.6696,-0.6695,0,-0.5552,-0.5913,-0.6059,-0.6416,-0.6624,-0.6742,-0.6956,-0.711,-0.7155,-0.7254,-0.7199,-0.7194,-0.7064,-0.699,-0.706,-0.6828,-0.6899,-0.6888,-0.6585,-0.6574,-0.6218,-0.6405,-0.6074,-0.5882,-0.6677,-0.6679,-0.6681,0,-0.5394,-0.5749,-0.5777,-0.5944,-0.6206,-0.6338,-0.657,-0.6758,-0.6849,-0.6912,-0.702,-0.6992,-0.6857,-0.6802,-0.6669,-0.6733,-0.6843,-0.6546,-0.6537,-0.6497,-0.6828,-0.6423,-0.6394,-0.6813,-0.6818,-0.6822,-0.6667,0,-0.5415,-0.5572,-0.5667,-0.5895,-0.6033,-0.6192,-0.6321,-0.6416,-0.641,-0.6445,-0.6507,-0.6386,-0.6331,-0.6335,-0.6207,-0.636,-0.6224,-0.6135,-0.6018,-0.6242,-0.6126,-0.6139,-0.5871,-0.5864,-0.5857,-0.5852,0,0,-0.5199,-0.5363,-0.5397,-0.558,-0.5699,-0.57,-0.5892,-0.5961,-0.6035,-0.6062,-0.5972,-0.5927,-0.5813,-0.5907,-0.5965,-0.5891,-0.5826,-0.5893,-0.6111,-0.6141,-0.6168,-0.6075,-0.6094,-0.584,-0.5838,-0.5835,-0.5833,0,-0.5181,-0.521,-0.5334,-0.5453,-0.5585,-0.5638,-0.5686,-0.5778,-0.5799,-0.5894,-0.5741,-0.5714,-0.5669,-0.5638,-0.5599,-0.5797,-0.5629,-0.5762,-0.6035,-0.6055,-0.6094,-0.6127,-0.6045,-0.6067,-0.5817,-0.5819,-0.5819,0,-0.5072,-0.5142,-0.5185,-0.5332,-0.5385,-0.5553,-0.5436,-0.5545,-0.5672,-0.5435,-0.5548,-0.5426,-0.5299,-0.5367,-0.5372,-0.5308,-0.5462,-0.5402,-0.5431,-0.5437,-0.5446,-0.5491,-0.5531,-0.5021,-0.5019,-0.5018,0,0,-0.5059,-0.514,-0.5244,-0.5331,-0.5387,-0.542,-0.5469,-0.5474,-0.5474,-0.5462,-0.5403,-0.5314,-0.5266,-0.5261,-0.5188,-0.5262,-0.5163,-0.5321,-0.5358,-0.539,-0.5414,-0.5431,-0.5474,-0.5014,-0.5014,-0.5014,0,0,-0.504,-0.5146,-0.5136,-0.5242,-0.5343,-0.5398,-0.5455,-0.544,-0.5422,-0.5377,-0.5243,-0.5214,-0.5235,-0.5138,-0.51,-0.5185,-0.5008,-0.5014,-0.5316,-0.5359,-0.5395,-0.5446,-0.4936,0,0,0,0,0,-0.5063,-0.5146,-0.5137,-0.5162,-0.5267,-0.5411,-0.5423,-0.5409,-0.5331,-0.5396,-0.5298,-0.5184,-0.5095,-0.5059,-0.5039,-0.5163,-0.4961,-0.497,-0.4979,-0.5375,-0.5423,-0.5464,0,0,0,0,0,0,-0.5074,-0.5103,-0.5136,-0.5195,-0.5221,-0.5404,-0.528,-0.5277,-0.5325,-0.5314,-0.5208,-0.5181,-0.5082,-0.5059,-0.5043,-0.5166,-0.4941,-0.4965,-0.4973,-0.498,-0.5392,-0.5431,-0.5465,0,0,0,0,0,-0.5082,-0.5105,-0.5275,-0.5193,-0.5214,-0.5233,-0.5274,-0.5271,-0.5292,-0.5194,-0.5169,-0.5284,-0.5087,-0.5065,-0.5049,-0.5178,-0.495,-0.4945,-0.497,-0.4976,-0.4982,-0.5411,0,0,0,0,0,0,-0.5088,-0.5078,-0.5278,-0.5285,-0.5155,-0.5222,-0.523,-0.5267,-0.5162,-0.5149,-0.5259,-0.525,-0.5091,-0.5073,-0.5057,-0.5193,-0.4958,-0.4953,-0.495,-0.4975,-0.498,-0.4984,0,0,0,0,0,0,-0.5067,-0.5083,-0.5281,-0.5234,-0.5234,-0.5213,-0.522,-0.5179,-0.5155,-0.5226,-0.5222,-0.5255,-0.5067,-0.508,-0.5066,-0.5008,-0.4964,-0.4959,-0.4956,-0.4954,-0.4979,-0.4983,0,0,0,0,0,0,-0.5073,-0.5087,-0.523,-0.5231,-0.5231,-0.5293,-0.5167,-0.5233,-0.5246,-0.5224,-0.5235,-0.523,-0.5072,-0.506,-0.5073,-0.5022,-0.5011,-0.4964,-0.4961,-0.4958,-0.4957,0,0,0,0,0,0,0,-0.5079,-0.4988,-0.5257,-0.5229,-0.5228,-0.5352,-0.5352,-0.5352,-0.5245,-0.524,-0.5236,-0.5232,-0.4994,-0.4988,-0.4982,-0.5033,0,0,-0.4965,-0.4962,0,0,0,0,0,0,0,0,-0.4982,-0.4986,-0.5257,-0.526,-0.5262,-0.5352,-0.5352,-0.5352,-0.5244,-0.5241,-0.5237,-0.5234,-0.4992,-0.4988,-0.4983,0,0,0,0,0,0,0,0,0,0,0,0,0,0,0,-0.5257,-0.5259,0,-0.5352,-0.5352,-0.5352,-0.5244,-0.5241,-0.5238,-0.5235,-0.4991,-0.4987,-0.4983,0,0,0,0,0,0,0,0,0,0,0,0,0,0,0,0,0,0,0,0,0,0,0,0,0,0,0,0,0,0,0,0,0,0,0,0,0,0,0,0,0,0,0,0,0,0,0,0,0,0,0,0,0,0,0,0,0,0,0,0,0,0,0,0,0,0,0,0,0]}],[{"header":{"parameterUnit":"kt","parameterCategory":2,"dx":1,"dy":1,"la1":30.253999710083008,"la2":30.299108505249023,"lo1":-89.0895004272461,"lo2":-89.04439544677734,"nx":28,"ny":28,"refTime":"2022-10-14T21:00:00:Z","depth":"0","parameterNumber":3,"parameterNumberName":"V-component_of_CURRENTS"},"data":[-0.2437,-0.2682,-0.2762,-0.2849,-0.284,-0.2645,-0.2467,-0.2101,-0.1553,-0.0429,0.0544,0.1222,0.215,0.327,0.4069,0.4117,0.4569,0.436,0.4583,0.4317,0.4281,0.4247,0.4321,0.4601,0.4602,0.5342,0.535,0.5355,-0.2309,-0.2423,-0.2631,-0.2714,-0.2762,-0.2706,-0.2547,-0.2311,-0.1913,-0.1261,-0.0751,0.0445,0.1219,0.202,0.2907,0.3269,0.3459,0.3423,0.3748,0.3887,0.3188,0.3216,0.3265,0.3265,0.3265,0.3264,0.3264,0.3264,-0.2045,-0.2206,-0.2304,-0.246,-0.2528,-0.2494,-0.2423,-0.2244,-0.201,-0.1378,-0.1161,-0.0365,0.045,0.1371,0.1738,0.2477,0.2449,0.2825,0.2979,0.3036,0.3227,0.2244,0.2252,0.2251,0.225,0.225,0.2249,0,-0.1822,-0.1835,-0.1903,-0.2104,-0.2161,-0.2178,-0.2112,-0.2101,-0.1671,-0.1434,-0.0983,-0.0622,0.0056,0.0805,0.1415,0.1803,0.2564,0.2332,0.271,0.3222,0.3207,0.3426,0.2637,0.267,0.2672,0.2673,0.2673,0.2674,-0.1506,-0.1595,-0.1627,-0.1705,-0.1655,-0.1699,-0.169,-0.1412,-0.1312,-0.0839,-0.0768,-0.0341,0.0101,0.0804,0.1454,0.2019,0.2407,0.2361,0.2572,0.28,0.3005,0.3084,0.3237,0.2688,0.2686,0.2685,0.2684,0,-0.1355,-0.124,-0.1334,-0.1227,-0.1208,-0.1287,-0.1125,-0.1097,-0.0797,-0.0615,-0.053,0.0055,0.0492,0.1064,0.1668,0.2021,0.2589,0.2523,0.2472,0.2517,0.2835,0.2976,0.3181,0.3366,0.2522,0.2518,0.2514,0,-0.1017,-0.1065,-0.0925,-0.0953,-0.1049,-0.0761,-0.0766,-0.0547,-0.0277,-0.0144,0.0339,0.0522,0.118,0.151,0.1941,0.2299,0.2395,0.2649,0.2701,0.2785,0.2772,0.3132,0.3288,0.2946,0.2946,0.2946,0.2947,0,-0.0765,-0.0669,-0.0729,-0.0668,-0.0438,-0.0399,-0.0273,0.0066,0.0164,0.0508,0.0601,0.1049,0.1221,0.1626,0.2095,0.2175,0.2515,0.2688,0.2719,0.2703,0.2838,0.2829,0.3176,0.2947,0.2947,0.2947,0.2947,0,-0.0398,-0.0375,-0.041,-0.0266,-0.0233,-0.0154,0.0056,0.0214,0.0589,0.0768,0.1073,0.1343,0.1659,0.1852,0.2298,0.2247,0.2458,0.2667,0.2674,0.2557,0.2628,0.2651,0.2652,0.3002,0.2713,0.2712,0.2711,0,-0.0229,-0.0224,0.0005,0.0013,0.0025,0.0343,0.0471,0.0718,0.0963,0.1143,0.1506,0.1677,0.1936,0.2008,0.2236,0.2485,0.2602,0.256,0.278,0.2783,0.2598,0.2584,0.2669,0.2638,0.2697,0.2698,0.2699,0,-0.0062,0.019,0.0187,0.0218,0.0514,0.0578,0.0759,0.098,0.1052,0.1374,0.1482,0.1847,0.1992,0.2123,0.2328,0.2498,0.2573,0.2575,0.2585,0.2514,0.2756,0.2582,0.2574,0.2713,0.2716,0.2718,0.2688,0,0.0251,0.0311,0.0315,0.0507,0.0628,0.0679,0.0959,0.1091,0.1263,0.1462,0.1686,0.1965,0.2179,0.2291,0.2415,0.2563,0.2535,0.2653,0.2681,0.2703,0.2681,0.2689,0.2619,0.2621,0.2623,0.2624,0,0,0.0349,0.0432,0.0652,0.0714,0.0795,0.106,0.1083,0.1264,0.1533,0.1621,0.1695,0.2079,0.2245,0.2452,0.2493,0.2578,0.2602,0.2547,0.2692,0.2699,0.2705,0.2686,0.2692,0.2627,0.2627,0.2628,0.2628,0,0.0489,0.0623,0.0637,0.0777,0.0969,0.1133,0.1147,0.1397,0.1515,0.1683,0.1858,0.203,0.2248,0.2425,0.2533,0.2588,0.2635,0.2618,0.2555,0.2701,0.2706,0.2711,0.2691,0.2696,0.2632,0.2632,0.2632,0,0.0639,0.0788,0.0821,0.1033,0.1163,0.126,0.1417,0.1516,0.1611,0.1813,0.196,0.2114,0.231,0.2453,0.2514,0.2535,0.2668,0.2648,0.2643,0.2607,0.2759,0.2764,0.2768,0.2705,0.2704,0.2704,0,0,0.0734,0.0805,0.1046,0.1076,0.1144,0.1367,0.1446,0.1569,0.1743,0.1812,0.1974,0.2137,0.2286,0.2366,0.2499,0.2609,0.2653,0.2649,0.2646,0.2642,0.2604,0.2754,0.2759,0.2702,0.2702,0.2702,0,0,0.078,0.1031,0.1116,0.1169,0.1332,0.1581,0.1602,0.1726,0.1879,0.1882,0.2074,0.2118,0.2238,0.2336,0.2294,0.2508,0.2533,0.2544,0.2431,0.2429,0.2426,0.2346,0.2387,0,0,0,0,0,0.1016,0.1001,0.1075,0.1113,0.1377,0.1543,0.1584,0.1753,0.1802,0.1827,0.1992,0.2048,0.2374,0.234,0.2374,0.2396,0.2676,0.268,0.2685,0.2566,0.2562,0.2559,0,0,0,0,0,0,0.1033,0.1077,0.1077,0.1315,0.1377,0.1544,0.1663,0.1711,0.1803,0.1821,0.2023,0.2055,0.2183,0.233,0.2358,0.2378,0.2377,0.2678,0.2682,0.2685,0.2564,0.2561,0.2558,0,0,0,0,0,0.1047,0.1082,0.1446,0.1319,0.1372,0.1601,0.1663,0.1704,0.1782,0.1983,0.202,0.1898,0.2179,0.2213,0.2347,0.2362,0.2358,0.2368,0.268,0.2683,0.2686,0.2563,0,0,0,0,0,0,0.1057,0.114,0.1463,0.1488,0.1313,0.1596,0.1641,0.1697,0.1941,0.1979,0.1865,0.1876,0.2178,0.2204,0.2229,0.2351,0.2342,0.2353,0.2359,0.2683,0.2685,0.2687,0,0,0,0,0,0,0.1123,0.1159,0.1476,0.1458,0.1483,0.159,0.163,0.1734,0.1939,0.181,0.1828,0.1866,0.2113,0.2197,0.2217,0.2378,0.233,0.234,0.2347,0.2352,0.2685,0.2686,0,0,0,0,0,0,0.1142,0.1175,0.1453,0.1472,0.1494,0.179,0.1685,0.193,0.1967,0.1795,0.1969,0.1971,0.2102,0.2127,0.2209,0.236,0.2373,0.233,0.2337,0.2342,0.2345,0,0,0,0,0,0,0,0.1159,0.0888,0.1309,0.1484,0.1503,0.1716,0.1724,0.1731,0.1967,0.1968,0.1969,0.197,0.2272,0.2283,0.2294,0.2345,0,0,0.2329,0.2334,0,0,0,0,0,0,0,0,0.088,0.0886,0.131,0.1315,0.132,0.1717,0.1723,0.1729,0.1967,0.1968,0.1969,0.197,0.2275,0.2284,0.2293,0,0,0,0,0,0,0,0,0,0,0,0,0,0,0,0.1311,0.1315,0,0.1718,0.1723,0.1728,0.1968,0.1968,0.1969,0.1969,0.2278,0.2285,0.2292,0,0,0,0,0,0,0,0,0,0,0,0,0,0,0,0,0,0,0,0,0,0,0,0,0,0,0,0,0,0,0,0,0,0,0,0,0,0,0,0,0,0,0,0,0,0,0,0,0,0,0,0,0,0,0,0,0,0,0,0,0,0,0,0,0,0,0,0,0]}]],[[{"header":{"parameterUnit":"kt","parameterCategory":2,"dx":1,"dy":1,"la1":30.253999710083008,"la2":30.299108505249023,"lo1":-89.0895004272461,"lo2":-89.04439544677734,"nx":28,"ny":28,"refTime":"2022-10-14T21:00:00:Z","depth":"2","parameterNumber":2,"parameterNumberName":"U-component_of_CURRENTS"},"data":[-0.4765,-0.4586,-0.4546,-0.4022,-0.3962,-0.3473,-0.3188,-0.3011,-0.2826,-0.2524,-0.2373,-0.2543,-0.2609,-0.2148,-0.2061,-0.1832,-0.2228,-0.1727,-0.2692,-0.2993,-0.3085,-0.3398,-0.3233,0,0,0,0,0,-0.4943,-0.4957,-0.4947,-0.4844,-0.4588,-0.4809,-0.4506,-0.4221,-0.3807,-0.3736,-0.3478,-0.3019,-0.277,-0.2778,-0.2482,-0.2467,-0.2572,-0.2382,-0.2559,-0.2663,-0.2758,-0.2582,-0.1722,-0.1719,-0.1716,-0.1713,0,0,-0.5265,-0.5289,-0.5352,-0.5323,-0.5339,-0.5169,-0.4962,-0.4941,-0.4766,-0.4438,-0.4449,-0.4062,-0.4007,-0.3531,-0.3315,-0.3222,-0.3603,-0.3567,-0.3615,-0.3675,-0.3532,-0.3385,-0.2929,-0.2934,-0.2939,-0.2943,-0.2946,0,-0.5456,-0.5528,-0.5619,-0.5684,-0.5685,-0.5713,-0.569,-0.5645,-0.5655,-0.5558,-0.5205,-0.503,-0.4689,-0.4304,-0.4097,-0.3987,-0.4416,-0.41,-0.4904,-0.4326,-0.4197,-0.4182,-0.4233,-0.3922,-0.3933,-0.3941,-0.3947,-0.3951,-0.5529,-0.5638,-0.5874,-0.5886,-0.5974,-0.6088,-0.6064,-0.6262,-0.6173,-0.6091,-0.5906,-0.5741,-0.5397,-0.511,-0.494,-0.4808,-0.501,-0.436,-0.4491,-0.5167,-0.5146,-0.5163,-0.5177,-0.4071,-0.4055,-0.4043,-0.4033,0,-0.5527,-0.572,-0.5896,-0.6122,-0.617,-0.6231,-0.6354,-0.6336,-0.646,-0.6326,-0.6333,-0.6246,-0.5979,-0.5911,-0.5776,-0.5654,-0.5505,-0.5317,-0.4885,-0.4792,-0.5243,-0.5242,-0.5081,-0.5067,-0.5056,-0.5046,-0.5038,0,-0.5596,-0.5714,-0.5959,-0.6062,-0.6172,-0.6306,-0.6375,-0.6439,-0.6506,-0.6397,-0.6519,-0.6355,-0.6387,-0.6189,-0.6116,-0.5751,-0.5935,-0.5617,-0.5575,-0.5276,-0.5218,-0.5931,-0.5923,-0.601,-0.601,-0.6011,-0.6011,0,-0.5511,-0.5799,-0.5965,-0.6051,-0.6266,-0.6299,-0.6368,-0.6415,-0.6431,-0.6506,-0.6485,-0.6481,-0.6359,-0.6363,-0.6059,-0.6158,-0.5913,-0.6065,-0.5652,-0.5626,-0.5258,-0.5193,-0.6012,-0.6012,-0.6012,-0.6013,-0.6013,0,-0.5553,-0.5727,-0.5951,-0.6137,-0.6187,-0.6267,-0.6335,-0.64,-0.6422,-0.6416,-0.639,-0.6348,-0.6277,-0.6197,-0.6087,-0.6107,-0.6009,-0.5955,-0.5953,-0.5575,-0.5522,-0.511,-0.5006,-0.5885,-0.5885,-0.5884,-0.5884,0,-0.5428,-0.5708,-0.5813,-0.5996,-0.6131,-0.6166,-0.6225,-0.6258,-0.6257,-0.6282,-0.6192,-0.6197,-0.6061,-0.6042,-0.6009,-0.5941,-0.5913,-0.5913,-0.588,-0.5876,-0.5557,-0.5547,-0.5165,-0.5034,-0.5881,-0.5881,-0.5881,0,-0.5335,-0.5633,-0.5652,-0.5754,-0.5916,-0.5983,-0.6046,-0.6114,-0.6134,-0.6123,-0.6146,-0.6065,-0.5995,-0.5964,-0.5892,-0.5885,-0.5897,-0.5844,-0.5844,-0.581,-0.5943,-0.5585,-0.5553,-0.5954,-0.5956,-0.5957,-0.5879,0,-0.5393,-0.5516,-0.5577,-0.576,-0.5826,-0.5925,-0.5985,-0.6002,-0.5969,-0.5976,-0.5963,-0.5897,-0.5859,-0.584,-0.5775,-0.5795,-0.577,-0.578,-0.5732,-0.5795,-0.5745,-0.5748,-0.5686,-0.5684,-0.5682,-0.5681,0,0,-0.524,-0.5412,-0.5478,-0.5616,-0.5683,-0.5698,-0.5807,-0.5829,-0.5865,-0.5849,-0.5814,-0.5776,-0.5708,-0.5712,-0.5709,-0.5697,-0.5697,-0.5669,-0.5757,-0.5766,-0.5774,-0.5732,-0.5737,-0.5678,-0.5677,-0.5677,-0.5676,0,-0.528,-0.5342,-0.5445,-0.5537,-0.5649,-0.5691,-0.5708,-0.5781,-0.5769,-0.5801,-0.5737,-0.5693,-0.5682,-0.5647,-0.5628,-0.5677,-0.5634,-0.5678,-0.5707,-0.5743,-0.5754,-0.5763,-0.5725,-0.573,-0.5672,-0.5672,-0.5672,0,-0.5246,-0.534,-0.5381,-0.553,-0.5577,-0.5682,-0.5639,-0.5704,-0.575,-0.5662,-0.567,-0.5628,-0.5584,-0.5594,-0.5583,-0.5552,-0.5572,-0.5558,-0.5566,-0.5546,-0.5579,-0.5591,-0.5603,-0.5457,-0.5457,-0.5456,0,0,-0.5269,-0.5357,-0.5474,-0.5539,-0.5587,-0.5629,-0.5662,-0.5678,-0.5687,-0.5678,-0.5638,-0.559,-0.5575,-0.5549,-0.5536,-0.5533,-0.5505,-0.5536,-0.5546,-0.5555,-0.554,-0.5574,-0.5586,-0.5455,-0.5455,-0.5455,0,0,-0.5259,-0.5405,-0.5418,-0.5517,-0.5593,-0.5665,-0.5692,-0.5687,-0.5675,-0.5641,-0.5584,-0.557,-0.556,-0.5519,-0.551,-0.5513,-0.5466,-0.5468,-0.5547,-0.5559,-0.5568,-0.5557,-0.5453,0,0,0,0,0,-0.5333,-0.5399,-0.5411,-0.5438,-0.5565,-0.5669,-0.5682,-0.5692,-0.5635,-0.5667,-0.5612,-0.5564,-0.5513,-0.5503,-0.5494,-0.5511,-0.5439,-0.5442,-0.5444,-0.5546,-0.5559,-0.557,0,0,0,0,0,0,-0.5344,-0.5378,-0.5409,-0.5489,-0.5518,-0.5666,-0.5614,-0.5617,-0.5633,-0.5627,-0.5578,-0.5564,-0.5535,-0.5504,-0.5496,-0.5514,-0.5456,-0.544,-0.5442,-0.5445,-0.555,-0.5561,-0.557,0,0,0,0,0,-0.5353,-0.538,-0.5586,-0.5486,-0.5511,-0.555,-0.561,-0.5613,-0.5609,-0.5589,-0.5577,-0.5613,-0.5539,-0.5526,-0.5499,-0.5519,-0.5461,-0.5458,-0.5441,-0.5443,-0.5445,-0.5556,0,0,0,0,0,0,-0.536,-0.5366,-0.559,-0.5597,-0.5458,-0.5541,-0.5555,-0.5609,-0.5566,-0.5561,-0.5622,-0.5618,-0.5541,-0.5531,-0.5522,-0.5525,-0.5465,-0.5462,-0.546,-0.5443,-0.5444,-0.5446,0,0,0,0,0,0,-0.5352,-0.5372,-0.5593,-0.5557,-0.556,-0.5532,-0.5545,-0.5527,-0.556,-0.5597,-0.5596,-0.562,-0.5514,-0.5535,-0.5527,-0.5502,-0.5468,-0.5465,-0.5463,-0.5462,-0.5444,-0.5445,0,0,0,0,0,0,-0.536,-0.5377,-0.5555,-0.5557,-0.5559,-0.5636,-0.5509,-0.5608,-0.5628,-0.5595,-0.5621,-0.5618,-0.5516,-0.551,-0.5532,-0.5511,-0.5505,-0.5468,-0.5466,-0.5465,-0.5464,0,0,0,0,0,0,0,-0.5367,-0.5256,-0.5556,-0.5557,-0.5559,-0.5667,-0.5668,-0.5669,-0.5628,-0.5625,-0.5622,-0.5619,-0.5482,-0.548,-0.5477,-0.5517,0,0,-0.5468,-0.5467,0,0,0,0,0,0,0,0,-0.5248,-0.5254,-0.5556,-0.5558,-0.556,-0.5667,-0.5668,-0.5669,-0.5627,-0.5625,-0.5623,-0.562,-0.5482,-0.5479,-0.5477,0,0,0,0,0,0,0,0,0,0,0,0,0,0,0,-0.5556,-0.5558,0,-0.5667,-0.5668,-0.5669,-0.5627,-0.5625,-0.5623,-0.5621,-0.5481,-0.5479,-0.5477,0,0,0,0,0,0,0,0,0,0,0,0,0,0,0,0,0,0,0,0,0,0,0,0,0,0,0,0,0,0,0,0,0,0,0,0,0,0,0,0,0,0,0,0,0,0,0,0,0,0,0,0,0,0,0,0,0,0,0,0,0,0,0,0,0,0,0,0,0]}],[{"header":{"parameterUnit":"kt","parameterCategory":2,"dx":1,"dy":1,"la1":30.253999710083008,"la2":30.299108505249023,"lo1":-89.0895004272461,"lo2":-89.04439544677734,"nx":28,"ny":28,"refTime":"2022-10-14T21:00:00:Z","depth":"2","parameterNumber":3,"parameterNumberName":"V-component_of_CURRENTS"},"data":[-0.2847,-0.2842,-0.2781,-0.2603,-0.2493,-0.2258,-0.2118,-0.1933,-0.1616,-0.1228,-0.0843,-0.031,0.0256,0.0655,0.104,0.1301,0.1401,0.1293,0.1264,0.1376,0.139,0.1744,0.1445,0,0,0,0,0,-0.2805,-0.2785,-0.2745,-0.2606,-0.2469,-0.2373,-0.2109,-0.1944,-0.1699,-0.1261,-0.0907,-0.0327,0.0211,0.0685,0.1222,0.1528,0.161,0.1548,0.167,0.1687,0.1704,0.1504,0.1522,0.1523,0.1524,0.1524,0,0,-0.2699,-0.2721,-0.2633,-0.2553,-0.2442,-0.2261,-0.216,-0.1906,-0.1665,-0.1176,-0.0919,-0.0459,0.0046,0.0735,0.112,0.1466,0.1496,0.1682,0.1696,0.1711,0.1506,0.1318,0.1524,0.1525,0.1525,0.1525,0.1525,0,-0.2559,-0.2524,-0.2462,-0.2397,-0.23,-0.2159,-0.1955,-0.1853,-0.1442,-0.1197,-0.081,-0.0552,0.006,0.0552,0.1064,0.1349,0.1706,0.1743,0.1862,0.1742,0.1565,0.1577,0.155,0.1853,0.1855,0.1857,0.1858,0.1859,-0.2387,-0.238,-0.2227,-0.2186,-0.2098,-0.1994,-0.1883,-0.1598,-0.1408,-0.0924,-0.0757,-0.0338,-0.0036,0.0659,0.1094,0.1589,0.163,0.1796,0.1738,0.1653,0.1671,0.1635,0.1601,0.1884,0.188,0.1878,0.1876,0,-0.2301,-0.2168,-0.2096,-0.1889,-0.1829,-0.1797,-0.1535,-0.1415,-0.1163,-0.0881,-0.0776,-0.0312,0.0107,0.0546,0.1141,0.1357,0.1757,0.1822,0.1659,0.168,0.1647,0.1607,0.1978,0.1973,0.1969,0.1966,0.1963,0,-0.2105,-0.2047,-0.1844,-0.1803,-0.1742,-0.1497,-0.1396,-0.1233,-0.0952,-0.0761,-0.0459,-0.0234,0.0263,0.063,0.0953,0.1331,0.151,0.1546,0.1599,0.1545,0.1514,0.163,0.1596,0.189,0.1887,0.1884,0.1881,0,-0.2012,-0.1803,-0.1746,-0.1663,-0.1403,-0.1338,-0.1209,-0.0958,-0.0832,-0.0548,-0.0405,-0.0038,0.0175,0.0548,0.0906,0.0884,0.1462,0.1498,0.1504,0.1489,0.1574,0.1549,0.1877,0.1877,0.1876,0.1875,0.1874,0,-0.1821,-0.1728,-0.163,-0.1409,-0.1356,-0.1253,-0.1041,-0.0907,-0.063,-0.052,-0.0288,-0.0111,0.0224,0.0239,0.078,0.062,0.0843,0.1048,0.1069,0.0895,0.0856,0.1126,0.1307,0.1258,0.1252,0.1246,0.1241,0,-0.1793,-0.1668,-0.1499,-0.1365,-0.1283,-0.1089,-0.0967,-0.079,-0.064,-0.0464,-0.024,-0.0067,-0.0006,0.0077,0.0296,0.0564,0.0763,0.0529,0.0997,0.1011,0.0773,0.0926,0.0887,0.1222,0.1169,0.1176,0.1182,0,-0.1751,-0.1503,-0.1489,-0.1412,-0.1184,-0.1085,-0.0947,-0.0765,-0.069,-0.0505,-0.0356,-0.0119,-0.0043,0.0066,0.0183,0.0387,0.0643,0.0419,0.0431,0.0557,0.1093,0.0854,0.088,0.0705,0.0713,0.0719,0.1124,0,-0.1547,-0.1482,-0.1448,-0.1281,-0.1167,-0.1092,-0.0901,-0.0818,-0.0743,-0.0617,-0.0432,-0.0249,-0.0065,-0.0001,0.0062,0.0293,0.0305,0.0328,0.0348,0.0445,0.0604,0.0649,0.0126,0.0126,0.0127,0.0127,0,0,-0.156,-0.1471,-0.1346,-0.1253,-0.1167,-0.1035,-0.096,-0.0846,-0.0666,-0.0604,-0.0601,-0.0295,-0.019,0.0031,0.0065,0.011,0.0218,0.0105,0.0369,0.0395,0.042,0.0576,0.0619,0.0128,0.0128,0.0128,0.0128,0,-0.1459,-0.1407,-0.1374,-0.1256,-0.1114,-0.0999,-0.0987,-0.0812,-0.075,-0.0619,-0.0531,-0.0402,-0.0234,-0.0084,0.0004,0.0098,0.0194,0.0109,0.0145,0.0365,0.039,0.0413,0.0571,0.0609,0.0129,0.0129,0.0129,0,-0.1398,-0.1302,-0.1288,-0.1136,-0.104,-0.0931,-0.0876,-0.0794,-0.0711,-0.0618,-0.0504,-0.0412,-0.0263,-0.0126,-0.0071,-0.0064,0.0197,0.0068,0.0069,0.0087,0.0316,0.0343,0.0368,0.0056,0.0055,0.0055,0,0,-0.1335,-0.1293,-0.1125,-0.1107,-0.1049,-0.0907,-0.0849,-0.0783,-0.0664,-0.0626,-0.0523,-0.0413,-0.0292,-0.0227,-0.012,-0.0001,0.0112,0.0054,0.0058,0.006,0.0078,0.0306,0.0332,0.0052,0.0052,0.0052,0,0,-0.1295,-0.1134,-0.1108,-0.1073,-0.0948,-0.0764,-0.074,-0.0682,-0.0586,-0.0606,-0.0486,-0.0456,-0.0352,-0.0278,-0.0327,-0.0109,-0.0116,-0.0104,-0.0163,-0.0157,-0.0153,-0.016,-0.0275,0,0,0,0,0,-0.1144,-0.1149,-0.1128,-0.1104,-0.0933,-0.0779,-0.075,-0.066,-0.067,-0.0641,-0.0552,-0.052,-0.0262,-0.0304,-0.0274,-0.0224,0.0015,0.0022,0.0028,-0.002,-0.0015,-0.0011,0,0,0,0,0,0,-0.1134,-0.1106,-0.1125,-0.0952,-0.0911,-0.0779,-0.0746,-0.0719,-0.0671,-0.0666,-0.0534,-0.0514,-0.0426,-0.0314,-0.0289,-0.0242,-0.0283,0.0018,0.0023,0.0028,-0.0018,-0.0014,-0.0011,0,0,0,0,0,-0.1125,-0.1102,-0.0871,-0.0948,-0.0914,-0.0782,-0.0748,-0.0725,-0.0691,-0.0547,-0.0526,-0.0635,-0.0427,-0.0401,-0.0298,-0.0255,-0.0301,-0.0291,0.0022,0.0026,0.003,-0.0016,0,0,0,0,0,0,-0.1118,-0.1062,-0.086,-0.0843,-0.0974,-0.0786,-0.0761,-0.0732,-0.0574,-0.0552,-0.0641,-0.0638,-0.0426,-0.0406,-0.0387,-0.0263,-0.0315,-0.0305,-0.0299,0.0025,0.0028,0.0031,0,0,0,0,0,0,-0.1073,-0.105,-0.0851,-0.0889,-0.0875,-0.0792,-0.0769,-0.0668,-0.0575,-0.0677,-0.067,-0.0642,-0.0473,-0.041,-0.0394,-0.0237,-0.0325,-0.0316,-0.031,-0.0306,0.0028,0.003,0,0,0,0,0,0,-0.106,-0.104,-0.0892,-0.0882,-0.087,-0.0672,-0.07,-0.0542,-0.058,-0.0686,-0.0584,-0.0586,-0.0478,-0.046,-0.04,-0.0249,-0.024,-0.0325,-0.0319,-0.0315,-0.0312,0,0,0,0,0,0,0,-0.1049,-0.1227,-0.0963,-0.0876,-0.0866,-0.0688,-0.0683,-0.0678,-0.058,-0.0582,-0.0584,-0.0585,-0.0377,-0.0367,-0.0357,-0.0259,0,0,-0.0326,-0.0322,0,0,0,0,0,0,0,0,-0.1232,-0.1228,-0.0963,-0.0959,-0.0956,-0.0687,-0.0683,-0.0679,-0.058,-0.0582,-0.0583,-0.0585,-0.0374,-0.0366,-0.0358,0,0,0,0,0,0,0,0,0,0,0,0,0,0,0,-0.0962,-0.096,0,-0.0686,-0.0683,-0.068,-0.0581,-0.0582,-0.0583,-0.0584,-0.0372,-0.0365,-0.0359,0,0,0,0,0,0,0,0,0,0,0,0,0,0,0,0,0,0,0,0,0,0,0,0,0,0,0,0,0,0,0,0,0,0,0,0,0,0,0,0,0,0,0,0,0,0,0,0,0,0,0,0,0,0,0,0,0,0,0,0,0,0,0,0,0,0,0,0,0]}]],[[{"header":{"parameterUnit":"kt","parameterCategory":2,"dx":1,"dy":1,"la1":30.253999710083008,"la2":30.299108505249023,"lo1":-89.0895004272461,"lo2":-89.04439544677734,"nx":28,"ny":28,"refTime":"2022-10-14T21:00:00:Z","depth":"4","parameterNumber":2,"parameterNumberName":"U-component_of_CURRENTS"},"data":[-0.1166,-0.1131,-0.1107,-0.1039,-0.1022,-0.1073,-0.1219,-0.1398,-0.1518,-0.1792,-0.1913,-0.2064,-0.2253,-0.2382,-0.2448,-0.247,-0.2493,-0.2698,-0.2693,-0.2835,-0.2857,-0.2875,-0.3117,0,0,0,0,0,-0.1245,-0.1201,-0.1171,-0.1187,-0.1214,-0.1272,-0.1451,-0.1593,-0.185,-0.1914,-0.2057,-0.2245,-0.2409,-0.2504,-0.2513,-0.2584,-0.2747,-0.257,-0.2679,-0.2849,-0.2872,-0.3099,0,0,0,0,0,0,-0.1367,-0.1346,-0.1355,-0.136,-0.1406,-0.1473,-0.1599,-0.1742,-0.1812,-0.2072,-0.2158,-0.2406,-0.2608,-0.2653,-0.2689,-0.2712,-0.2792,-0.2732,-0.276,-0.2783,-0.2938,-0.2803,-0.2427,0,0,0,0,0,-0.1478,-0.1516,-0.1539,-0.1557,-0.1622,-0.1697,-0.186,-0.1853,-0.2151,-0.2209,-0.2373,-0.2433,-0.2565,-0.2766,-0.2743,-0.2846,-0.2984,-0.2897,-0.2914,-0.3238,-0.3147,-0.3103,-0.3127,-0.2961,-0.2964,-0.2966,-0.2967,0,-0.1603,-0.1601,-0.1724,-0.1744,-0.1831,-0.1998,-0.2061,-0.2292,-0.2349,-0.2542,-0.2513,-0.2586,-0.2809,-0.2765,-0.3016,-0.3045,-0.3147,-0.2955,-0.3301,-0.3187,-0.3133,-0.3151,-0.3168,-0.2986,-0.2985,-0.2983,-0.2982,0,-0.1651,-0.1752,-0.1792,-0.197,-0.2032,-0.2129,-0.2302,-0.236,-0.2574,-0.2646,-0.2669,-0.2884,-0.304,-0.3149,-0.3257,-0.3334,-0.3322,-0.3297,-0.3413,-0.3353,-0.3197,-0.3206,-0.3017,-0.301,-0.3004,-0.3,-0.2995,0,-0.1785,-0.1823,-0.1994,-0.201,-0.2094,-0.2275,-0.2407,-0.2602,-0.2741,-0.2839,-0.3083,-0.3164,-0.3459,-0.3456,-0.3586,-0.3596,-0.3652,-0.3647,-0.3572,-0.3856,-0.386,-0.3729,-0.3719,-0.3852,-0.3855,-0.3859,-0.3861,0,-0.1864,-0.1975,-0.2015,-0.2047,-0.2206,-0.2304,-0.2446,-0.2691,-0.2748,-0.3032,-0.3034,-0.3401,-0.3432,-0.363,-0.3683,-0.3827,-0.3735,-0.3812,-0.366,-0.3638,-0.3744,-0.3728,-0.3865,-0.3866,-0.3867,-0.3868,-0.3869,0,-0.1961,-0.2037,-0.2089,-0.2199,-0.2231,-0.232,-0.2514,-0.2644,-0.289,-0.3039,-0.3334,-0.3421,-0.361,-0.373,-0.39,-0.4035,-0.4032,-0.3999,-0.3983,-0.3752,-0.3648,-0.354,-0.3676,-0.3678,-0.3679,-0.368,-0.3681,0,-0.1985,-0.2087,-0.2154,-0.2219,-0.2251,-0.2386,-0.2508,-0.2692,-0.2856,-0.2983,-0.3218,-0.3354,-0.3619,-0.3712,-0.39,-0.386,-0.3919,-0.4003,-0.3802,-0.3786,-0.3672,-0.3776,-0.4128,-0.37,-0.3697,-0.3696,-0.3694,0,-0.2002,-0.2122,-0.2135,-0.2144,-0.2287,-0.2368,-0.2519,-0.2672,-0.2771,-0.3004,-0.3108,-0.3422,-0.3534,-0.3618,-0.3755,-0.3839,-0.3902,-0.392,-0.3915,-0.3745,-0.3932,-0.3802,-0.3776,-0.4116,-0.4118,-0.412,-0.3707,0,-0.2055,-0.207,-0.2134,-0.2202,-0.2277,-0.2358,-0.2483,-0.2587,-0.2696,-0.2798,-0.3053,-0.3159,-0.3328,-0.3411,-0.3502,-0.3702,-0.3674,-0.3699,-0.3623,-0.3767,-0.3549,-0.354,-0.3561,-0.3556,-0.3551,-0.3548,0,0,-0.2001,-0.2029,-0.2107,-0.2174,-0.2217,-0.2314,-0.2354,-0.2461,-0.26,-0.2683,-0.2715,-0.3014,-0.3044,-0.3294,-0.3397,-0.3405,-0.3426,-0.3532,-0.3689,-0.3706,-0.3721,-0.3525,-0.3522,-0.354,-0.3538,-0.3537,-0.3535,0,-0.2017,-0.2039,-0.2071,-0.2127,-0.2239,-0.2295,-0.2324,-0.2431,-0.2498,-0.2649,-0.27,-0.2817,-0.3042,-0.3103,-0.3182,-0.3355,-0.3338,-0.3475,-0.3626,-0.3653,-0.3676,-0.3695,-0.3508,-0.3508,-0.3525,-0.3525,-0.3526,0,-0.1963,-0.2028,-0.2025,-0.2111,-0.2171,-0.2229,-0.2247,-0.2368,-0.2432,-0.2476,-0.26,-0.2704,-0.2803,-0.2999,-0.3076,-0.3038,-0.323,-0.3239,-0.3259,-0.3216,-0.3234,-0.3261,-0.3285,-0.2978,-0.2978,-0.2977,0,0,-0.1975,-0.201,-0.2066,-0.2112,-0.2149,-0.2214,-0.2267,-0.2314,-0.2419,-0.2459,-0.2529,-0.2622,-0.2753,-0.2843,-0.2913,-0.309,-0.2979,-0.3183,-0.3208,-0.323,-0.3202,-0.3224,-0.325,-0.2974,-0.2974,-0.2974,0,0,-0.1997,-0.2056,-0.202,-0.2076,-0.2138,-0.2247,-0.2312,-0.2327,-0.2426,-0.2455,-0.251,-0.254,-0.271,-0.2714,-0.267,-0.2935,-0.281,-0.2823,-0.3004,-0.3036,-0.306,-0.3014,-0.2653,0,0,0,0,0,-0.2001,-0.2044,-0.2008,-0.2023,-0.2117,-0.2234,-0.2253,-0.2314,-0.2315,-0.2351,-0.2447,-0.2446,-0.2705,-0.2668,-0.2695,-0.2843,-0.2936,-0.2943,-0.2949,-0.3217,-0.325,-0.3278,0,0,0,0,0,0,-0.2008,-0.2022,-0.2011,-0.2109,-0.2134,-0.2231,-0.2229,-0.2246,-0.2313,-0.2317,-0.2429,-0.2449,-0.2494,-0.2656,-0.268,-0.2822,-0.2645,-0.2939,-0.2944,-0.295,-0.3228,-0.3255,-0.3278,0,0,0,0,0,-0.2013,-0.2025,-0.2144,-0.2111,-0.2132,-0.2225,-0.2228,-0.2242,-0.2291,-0.2391,-0.241,-0.2339,-0.2492,-0.2519,-0.267,-0.2812,-0.2629,-0.2637,-0.2942,-0.2947,-0.2951,-0.3241,0,0,0,0,0,0,-0.2018,-0.2035,-0.2151,-0.2163,-0.2105,-0.2223,-0.2236,-0.2238,-0.2361,-0.2381,-0.2302,-0.2304,-0.2492,-0.2512,-0.2532,-0.281,-0.2615,-0.2624,-0.263,-0.2946,-0.2949,-0.2952,0,0,0,0,0,0,-0.2031,-0.2043,-0.2157,-0.2145,-0.2155,-0.222,-0.2232,-0.2324,-0.2363,-0.2263,-0.227,-0.2302,-0.2483,-0.2508,-0.2523,-0.2664,-0.2605,-0.2614,-0.262,-0.2623,-0.2949,-0.2951,0,0,0,0,0,0,-0.2039,-0.2049,-0.2142,-0.215,-0.2159,-0.2285,-0.2306,-0.2403,-0.2329,-0.2257,-0.2328,-0.2328,-0.2479,-0.2495,-0.2517,-0.2651,-0.2661,-0.2605,-0.2611,-0.2615,-0.2618,0,0,0,0,0,0,0,-0.2045,-0.1943,-0.2094,-0.2153,-0.2161,-0.2271,-0.2273,-0.2275,-0.2329,-0.2329,-0.2328,-0.2328,-0.2557,-0.2566,-0.2575,-0.264,0,0,-0.2605,-0.2609,0,0,0,0,0,0,0,0,-0.1942,-0.1943,-0.2094,-0.2097,-0.21,-0.2272,-0.2273,-0.2275,-0.2329,-0.2329,-0.2328,-0.2328,-0.2559,-0.2567,-0.2574,0,0,0,0,0,0,0,0,0,0,0,0,0,0,0,-0.2095,-0.2097,0,-0.2272,-0.2273,-0.2275,-0.2329,-0.2329,-0.2328,-0.2328,-0.2561,-0.2567,-0.2574,0,0,0,0,0,0,0,0,0,0,0,0,0,0,0,0,0,0,0,0,0,0,0,0,0,0,0,0,0,0,0,0,0,0,0,0,0,0,0,0,0,0,0,0,0,0,0,0,0,0,0,0,0,0,0,0,0,0,0,0,0,0,0,0,0,0,0,0,0]}],[{"header":{"parameterUnit":"kt","parameterCategory":2,"dx":1,"dy":1,"la1":30.253999710083008,"la2":30.299108505249023,"lo1":-89.0895004272461,"lo2":-89.04439544677734,"nx":28,"ny":28,"refTime":"2022-10-14T21:00:00:Z","depth":"4","parameterNumber":3,"parameterNumberName":"V-component_of_CURRENTS"},"data":[-0.1255,-0.1372,-0.1457,-0.1545,-0.1615,-0.1687,-0.1691,-0.1662,-0.1494,-0.1384,-0.1084,-0.0955,-0.0451,-0.063,0.0036,0.0112,-0.0145,0.0619,0.0624,0.0117,0.0077,0.0042,-0.0083,0,0,0,0,0,-0.1258,-0.135,-0.1473,-0.1621,-0.1696,-0.1761,-0.177,-0.179,-0.1726,-0.1437,-0.1402,-0.098,-0.0478,-0.0284,0.0038,0.0023,0.0101,0.0391,-0.0053,0.0092,0.0049,-0.0058,0,0,0,0,0,0,-0.1275,-0.1361,-0.1499,-0.164,-0.174,-0.1768,-0.1837,-0.1729,-0.1693,-0.1514,-0.1357,-0.0987,-0.0805,-0.0366,-0.0079,0.0182,0.0113,0.0009,-0.0027,-0.0067,-0.0154,-0.0045,0.0391,0,0,0,0,0,-0.128,-0.136,-0.1486,-0.1644,-0.1755,-0.1852,-0.1935,-0.1892,-0.1896,-0.1876,-0.1527,-0.1265,-0.0805,-0.056,-0.0181,-0.0019,-0.0348,-0.0079,-0.0108,-0.0425,-0.035,-0.0288,-0.0321,-0.0117,-0.0123,-0.0126,-0.0128,0,-0.1236,-0.1331,-0.1559,-0.1642,-0.1749,-0.1908,-0.1967,-0.2066,-0.2041,-0.1896,-0.1815,-0.1499,-0.1353,-0.0747,-0.0653,-0.0335,-0.0292,-0.0189,-0.0527,-0.0422,-0.0344,-0.0368,-0.0388,-0.0163,-0.0161,-0.0158,-0.0155,0,-0.1211,-0.1319,-0.1501,-0.1702,-0.1763,-0.189,-0.2017,-0.205,-0.2085,-0.2028,-0.2037,-0.1887,-0.1577,-0.1389,-0.1168,-0.1051,-0.0811,-0.0609,-0.0921,-0.084,-0.0447,-0.0454,-0.0221,-0.0208,-0.0197,-0.0188,-0.0181,0,-0.1193,-0.1318,-0.1488,-0.1577,-0.174,-0.1854,-0.1976,-0.2061,-0.2095,-0.2065,-0.2101,-0.1975,-0.1954,-0.1721,-0.1607,-0.1195,-0.1347,-0.101,-0.0905,-0.1342,-0.1343,-0.1256,-0.1248,-0.1356,-0.1359,-0.1361,-0.1363,0,-0.1116,-0.1315,-0.1459,-0.1523,-0.1698,-0.1794,-0.1886,-0.1959,-0.1981,-0.2064,-0.2006,-0.2046,-0.197,-0.1896,-0.1631,-0.1689,-0.136,-0.1456,-0.1013,-0.0983,-0.1268,-0.1255,-0.1366,-0.1367,-0.1368,-0.1368,-0.1369,0,-0.1096,-0.1196,-0.1377,-0.1548,-0.1587,-0.1692,-0.1804,-0.1888,-0.1938,-0.1936,-0.1949,-0.1891,-0.1937,-0.1866,-0.1738,-0.1739,-0.1588,-0.1476,-0.1461,-0.1114,-0.0967,-0.1058,-0.1172,-0.1173,-0.1173,-0.1174,-0.1175,0,-0.1005,-0.1169,-0.1217,-0.1391,-0.1482,-0.1509,-0.161,-0.1674,-0.1679,-0.172,-0.173,-0.1767,-0.1713,-0.1702,-0.1712,-0.1608,-0.1561,-0.1639,-0.1287,-0.1275,-0.0994,-0.1036,-0.1531,-0.1186,-0.1185,-0.1184,-0.1183,0,-0.0917,-0.1052,-0.1069,-0.1147,-0.1226,-0.1273,-0.1383,-0.1461,-0.1502,-0.1518,-0.1574,-0.1661,-0.1603,-0.1607,-0.1554,-0.1553,-0.1559,-0.14,-0.1395,-0.1248,-0.1382,-0.1078,-0.104,-0.1519,-0.1521,-0.1523,-0.1191,0,-0.091,-0.0978,-0.101,-0.1084,-0.1129,-0.1186,-0.122,-0.1257,-0.1246,-0.1253,-0.131,-0.1312,-0.133,-0.1347,-0.1307,-0.1399,-0.122,-0.122,-0.1125,-0.1247,-0.107,-0.1065,-0.107,-0.1066,-0.1063,-0.106,0,0,-0.0811,-0.0873,-0.0843,-0.0912,-0.0953,-0.0905,-0.099,-0.101,-0.1019,-0.104,-0.0989,-0.1021,-0.1041,-0.1122,-0.1174,-0.1157,-0.102,-0.1069,-0.1184,-0.1199,-0.1212,-0.1053,-0.1052,-0.1055,-0.1054,-0.1053,-0.1052,0,-0.079,-0.078,-0.0824,-0.0853,-0.087,-0.0872,-0.0884,-0.0887,-0.0891,-0.0946,-0.0893,-0.0938,-0.0914,-0.0954,-0.096,-0.1097,-0.0927,-0.1047,-0.1154,-0.1158,-0.1176,-0.1192,-0.1041,-0.1042,-0.1044,-0.1045,-0.1045,0,-0.0732,-0.0732,-0.0742,-0.0765,-0.0763,-0.0823,-0.074,-0.0762,-0.082,-0.0707,-0.0767,-0.0738,-0.071,-0.0772,-0.0788,-0.0733,-0.0811,-0.0814,-0.0829,-0.0835,-0.0832,-0.0854,-0.0874,-0.0619,-0.0618,-0.0618,0,0,-0.0714,-0.0731,-0.0733,-0.0758,-0.0767,-0.0745,-0.0749,-0.0733,-0.0719,-0.0711,-0.0684,-0.0662,-0.0681,-0.0675,-0.068,-0.0723,-0.0644,-0.0768,-0.0788,-0.0805,-0.082,-0.0822,-0.0844,-0.0614,-0.0614,-0.0614,0,0,-0.0697,-0.0695,-0.0681,-0.0713,-0.0723,-0.0705,-0.0718,-0.0693,-0.0684,-0.067,-0.061,-0.06,-0.065,-0.06,-0.0566,-0.066,-0.0569,-0.0576,-0.0707,-0.0731,-0.075,-0.0772,-0.0488,0,0,0,0,0,-0.0666,-0.07,-0.0689,-0.0691,-0.0694,-0.0719,-0.0719,-0.0681,-0.0639,-0.066,-0.0625,-0.0573,-0.0577,-0.0545,-0.0541,-0.0616,-0.0574,-0.0581,-0.0588,-0.0768,-0.0794,-0.0816,0,0,0,0,0,0,-0.0667,-0.0672,-0.0687,-0.0673,-0.0673,-0.0717,-0.0649,-0.064,-0.0636,-0.0628,-0.0583,-0.0572,-0.0533,-0.0543,-0.054,-0.0614,-0.0489,-0.0577,-0.0583,-0.0589,-0.0777,-0.0798,-0.0816,0,0,0,0,0,-0.0668,-0.0671,-0.0686,-0.0672,-0.0672,-0.0636,-0.0647,-0.0639,-0.0631,-0.0586,-0.0574,-0.0602,-0.0536,-0.0529,-0.0541,-0.0617,-0.049,-0.0489,-0.0581,-0.0586,-0.059,-0.0787,0,0,0,0,0,0,-0.0668,-0.0662,-0.0685,-0.0684,-0.0649,-0.0632,-0.0628,-0.0638,-0.0588,-0.0579,-0.0602,-0.0596,-0.0538,-0.0533,-0.0528,-0.0623,-0.0491,-0.0491,-0.049,-0.0585,-0.0588,-0.0592,0,0,0,0,0,0,-0.066,-0.0661,-0.0684,-0.0657,-0.0652,-0.0629,-0.0626,-0.0626,-0.0587,-0.0607,-0.0601,-0.06,-0.0534,-0.0536,-0.0532,-0.0535,-0.0492,-0.0491,-0.0491,-0.0491,-0.0588,-0.0591,0,0,0,0,0,0,-0.066,-0.0661,-0.0657,-0.0653,-0.0649,-0.0629,-0.0627,-0.0625,-0.0588,-0.0609,-0.0581,-0.0578,-0.0538,-0.0533,-0.0534,-0.054,-0.0536,-0.0492,-0.0492,-0.0491,-0.0491,0,0,0,0,0,0,0,-0.066,-0.0663,-0.0695,-0.065,-0.0646,-0.067,-0.067,-0.0669,-0.0587,-0.0584,-0.0581,-0.0579,-0.0497,-0.0496,-0.0495,-0.0544,0,0,-0.0492,-0.0492,0,0,0,0,0,0,0,0,-0.0661,-0.0662,-0.0695,-0.0694,-0.0694,-0.067,-0.067,-0.067,-0.0586,-0.0584,-0.0582,-0.058,-0.0496,-0.0496,-0.0495,0,0,0,0,0,0,0,0,0,0,0,0,0,0,0,-0.0695,-0.0694,0,-0.067,-0.067,-0.067,-0.0586,-0.0584,-0.0582,-0.0581,-0.0496,-0.0496,-0.0495,0,0,0,0,0,0,0,0,0,0,0,0,0,0,0,0,0,0,0,0,0,0,0,0,0,0,0,0,0,0,0,0,0,0,0,0,0,0,0,0,0,0,0,0,0,0,0,0,0,0,0,0,0,0,0,0,0,0,0,0,0,0,0,0,0,0,0,0,0]}]]]